Change the Weather History Date:

Sunday, May 26, 2013

  Actual Average Record
Temperature  
Mean Temperature 70 °F -  
Max Temperature 80 °F 77 °F 90 °F (2012)
Min Temperature 59 °F 58 °F 46 °F (2003)
Cooling Degree Days 4    
Growing Degree Days 20 (Base 50)    
Moisture  
Dew Point 56 °F    
Average Humidity 60    
Maximum Humidity 80    
Minimum Humidity 45    
Precipitation  
Precipitation 0.00 in - - ()
Sea Level Pressure  
Sea Level Pressure 30.18 in    
Wind  
Wind Speed 5 mph (ESE)    
Max Wind Speed 10 mph    
Max Gust Speed -    
Visibility 10 miles    
Events      
Averages and records for this station are not official NWS values.
T = Trace of Precipitation, MM = Missing Value Source: NWS Daily Summary

Daily Weather History Graph

Daily Weather History Graph

Search for Another Location

Airport or City:

Trip Planner

Search our weather history database for the weather conditions in past years. The results will help you decide how hot, cold, wet, or windy it might be!

Date:

Astronomy

May. 26, 2013 Rise Set
Actual Time 5:35 AM CDT 7:59 PM CDT
Civil Twilight 5:05 AM CDT 8:29 PM CDT
Nautical Twilight 4:29 AM CDT 9:05 PM CDT
Astronomical Twilight 3:48 AM CDT 9:46 PM CDT
Moon 9:47 PM CDT (5/26) 7:03 AM CDT (5/26)
Length of Visible Light 15h 23m
Length of Day
14h 24m
Waning Gibbous, 96% of the Moon is Illuminated
May 26
Waning Gibbous
May 31
Last Quarter
Jun 8
New
Jun 16
First Quarter
Jun 23
Full

Hourly Weather History & Observations

Time (CDT) Temp. Heat Index Dew Point Humidity Pressure Visibility Wind Dir Wind Speed Gust Speed Precip Events Conditions
12:58 AM 59.9 °F - 53.8 °F 80% 30.21 in 10.0 mi NE 3.5 mph - N/A   Overcast
1:58 AM 61.3 °F - 52.2 °F 72% 30.19 in 10.0 mi East 3.5 mph - N/A   Mostly Cloudy
2:58 AM 61.2 °F - 51.6 °F 71% 30.20 in 10.0 mi East 4.6 mph - N/A   Overcast
3:58 AM 61.7 °F - 51.4 °F 69% 30.21 in 10.0 mi East 5.8 mph - N/A   Overcast
4:58 AM 61.7 °F - 52.0 °F 70% 30.21 in 10.0 mi ESE 10.4 mph - N/A   Overcast
5:58 AM 60.1 °F - 52.7 °F 77% 30.23 in 10.0 mi ENE 5.8 mph - N/A   Partly Cloudy
6:58 AM 61.0 °F - 53.4 °F 76% 30.23 in 10.0 mi East 9.2 mph - N/A   Clear
7:58 AM 64.0 °F - 53.1 °F 67% 30.23 in 10.0 mi ESE 8.1 mph - N/A   Clear
8:58 AM 67.6 °F - 52.5 °F 58% 30.23 in 10.0 mi ESE 10.4 mph - N/A   Clear
9:58 AM 70.9 °F - 53.2 °F 54% 30.24 in 10.0 mi SE 5.8 mph - N/A   Clear
10:58 AM 73.9 °F - 54.0 °F 50% 30.23 in 10.0 mi ESE 3.5 mph - N/A   Clear
11:58 AM 76.1 °F - 54.0 °F 46% 30.23 in 10.0 mi Variable 2.3 mph - N/A   Clear
12:58 PM 77.9 °F - 54.9 °F 45% 30.22 in 7.0 mi SE 4.6 mph - N/A   Partly Cloudy
1:58 PM 78.1 °F - 57.2 °F 49% 30.20 in 10.0 mi Variable 5.8 mph - N/A   Mostly Cloudy
2:58 PM 80.2 °F 80.6 °F 57.7 °F 46% 30.18 in 10.0 mi Variable 2.3 mph - N/A   Partly Cloudy
3:58 PM 80.2 °F 80.8 °F 58.6 °F 48% 30.16 in 10.0 mi Variable 2.3 mph - N/A   Clear
4:58 PM 80.8 °F 81.4 °F 59.7 °F 49% 30.14 in 10.0 mi South 4.6 mph - N/A   Clear
5:58 PM 79.7 °F - 60.3 °F 51% 30.12 in 10.0 mi SSE 4.6 mph - N/A   Clear
6:58 PM 78.6 °F - 59.4 °F 51% 30.12 in 10.0 mi ESE 6.9 mph - N/A   Clear
7:58 PM 76.1 °F - 60.3 °F 58% 30.12 in 10.0 mi ESE 2.3 mph - N/A   Clear
8:21 PM 75.2 °F - 60.8 °F 61% 30.12 in 10.0 mi ESE 2.3 mph - N/A   Light Drizzle
8:34 PM 75.2 °F - 60.8 °F 61% 30.12 in 10.0 mi ESE 2.3 mph - N/A   Clear
8:58 PM 73.4 °F - 60.8 °F 65% 30.12 in 10.0 mi ESE 3.5 mph - 0.00 in   Clear
9:58 PM 71.2 °F - 60.8 °F 69% 30.13 in 10.0 mi ESE 3.5 mph - N/A   Clear
10:58 PM 70.5 °F - 58.5 °F 66% 30.13 in 10.0 mi SE 4.6 mph - N/A   Clear